Regional Weather Roundup
Issued by NWS

Home | Current Version | Previous Version | Graphics & Text | Print | Product List | Glossary On
Versions: 1 2 3 4 5 6 7 8 9 10 11 12 13 14 15 16 17 18 19 20 21 22 23 24 25 26 27 28 29 30 31 32 33 34 35 36 37 38 39 40 41 42 43 44 45 46 47 48 49 50
719
ASUS45 KABQ 261601
RWRNM
NEW MEXICO REGIONAL WEATHER ROUNDUP
NATIONAL WEATHER SERVICE ALBUQUERQUE NM
1000 AM MDT THU MAY 26 2016

NOTE: "FAIR" MEANS FEW OR NO CLOUDS BELOW 12,000 FEET AGL WITH NO
       SIGNIFICANT WEATHER OR OBSTRUCTIONS TO VISION.

      THIS PRODUCT IS RELEASED AS TWO VERSIONS.  ONE VERSION NEAR
      THE TOP OF THE HOUR CONTAINING PRELIMINARY DATA FROM ALBUQUERQUE
      AND OTHER STATIONS.  A FINAL VERSION WITH ADDITIONAL DATA IS
      ISSUED ABOUT 10 MINUTES AFTER THE HOUR.

NMZ501-503-504-510>518-261700-
NORTHWEST PLATEAU/NORTHCENTRAL MOUNTAINS

CITY           SKY/WX    TMP DP  RH WIND       PRES   REMARKS
FARMINGTON     FAIR      62  26  25 NE14      29.95F
SANTA FE       FAIR      66  19  16 SW10      29.96F
TAOS           FAIR      61  25  25 N6        29.99F

$$
NMZ402-403-502-505>509-261700-
WESTCENTRAL MOUNTAINS/SOUTHWEST MOUNTAINS

CITY           SKY/WX    TMP DP  RH WIND       PRES   REMARKS
GALLUP         FAIR      55  17  22 W17G23    30.04F
GRANTS         FAIR      59  17  19 SW9       30.04S
SILVER CITY      N/A     63  19  19 W15G23    30.05F

$$
NMZ407-409-411-412-261700-
SOUTHERN DESERTS

CITY           SKY/WX    TMP DP  RH WIND       PRES   REMARKS
LORDSBURG      FAIR      66  23  19 W7        30.01F
DEMING         FAIR      69  23  17 W20G26    30.00F
HOLLOMAN AFB   FAIR      74  23  14 W15       29.96F
ALAMOGORDO     FAIR      73  23  15 SW13      29.99F
T OR C         FAIR      69  18  14 S8        29.97F

$$
NMZ519>523-261700-
CENTRAL VALLEYS/CENTRAL HIGHLANDS

CITY           SKY/WX    TMP DP  RH WIND       PRES   REMARKS
ALBUQUERQUE    FAIR      65  20  17 VRB7      29.97F
DOUBLE EAGLE   MOSUNNY   64  19  17 CALM      29.99F
CLINES CORNERS FAIR      62  18  18 W12       29.99F
BELEN          FAIR      69  17  13 SW12G18   29.97S
SOCORRO        NOT AVBL

$$
NMZ524>526-539-540-261700-
SOUTHCENTRAL MOUNTAINS

CITY           SKY/WX    TMP DP  RH WIND       PRES   REMARKS
RUIDOSO        NOT AVBL

$$
NMZ527>531-261700-
NORTHEAST HIGHLANDS/NORTHEAST PLAINS

CITY           SKY/WX    TMP DP  RH WIND       PRES   REMARKS
LAS VEGAS      FAIR      64  19  17 S15G26    29.97F
RATON          FAIR      68  28  22 VRB7      29.92F
CLAYTON        FAIR      72  32  23 NE8       29.88F

$$
NMZ532>537-261700-
EASTCENTRAL PLAINS

CITY           SKY/WX    TMP DP  RH WIND       PRES   REMARKS
TUCUMCARI      FAIR      82  15   8 SW15      29.84F
CANNON AFB     NOT AVBL
CLOVIS AIRPORT FAIR      79  28  15 W18G25    29.90F

$$
NMZ028-029-538-261700-
SOUTHEAST PLAINS

CITY           SKY/WX    TMP DP  RH WIND       PRES   REMARKS
ROSWELL        FAIR      82  22  11 W9        29.89F
ARTESIA        FAIR      82  27  13 SW21G29   29.90F
CARLSBAD       FAIR      84  26  12 W18       29.88F
HOBBS          SUNNY     84  25  11 SW14G23   29.92F


$$




USA.gov is the U.S. government's official web portal to all federal, state and local government web resources and services.